[[{"header":{"parameterUnit":"m.s-1","parameterCategory":1,"la1":30.2991,"la2":30.254,"lo1":-89.0895,"lo2":-89.0444,"dy":0.0017,"dx":0.0017,"nx":28,"ny":28,"refTime":"2026-02-13T09:00:00:Z","depth":0,"parameterNumber":2,"parameterNumberName":"U-component_of_WINDS"},"data":[0,0,0,0,0,0,0,0,0,0,0,0,0,0,0,0,0,0,0,0,0,0,0,0,0,0,0,0,0,0,0,0,0,0,0,0,0,0,0,0,0,0,0,0,0,0,0,0,0,0,0,0,0,0,0,0,0,0,-0.3182,-0.3181,0,-0.313,-0.313,-0.3129,-0.3064,-0.3063,-0.3062,-0.3061,-0.3009,-0.3009,-0.3008,0,0,0,0,0,0,0,0,0,0,0,0,0,-0.3225,-0.3224,-0.3182,-0.3181,-0.318,-0.3131,-0.313,-0.3129,-0.3065,-0.3063,-0.3062,-0.3061,-0.3009,-0.3009,-0.3008,0,0,0,0,0,0,0,0,0,0,0,0,0,-0.3193,-0.3224,-0.3182,-0.3142,-0.3138,-0.3131,-0.313,-0.3129,-0.3065,-0.3063,-0.3062,-0.306,-0.301,-0.3009,-0.3008,-0.3036,0,0,-0.3006,-0.3006,0,0,0,0,0,0,0,0,-0.3195,-0.3192,-0.3149,-0.3145,-0.314,-0.3102,-0.3126,-0.3098,-0.3065,-0.3093,-0.3061,-0.306,-0.3042,-0.3038,-0.3032,-0.3033,-0.3031,-0.3006,-0.3006,-0.3006,-0.3006,0,0,0,0,0,0,0,-0.3197,-0.3193,-0.3161,-0.3148,-0.3143,-0.3127,-0.3121,-0.312,-0.3077,-0.309,-0.3085,-0.308,-0.3039,-0.3033,-0.303,-0.303,-0.3006,-0.3006,-0.3005,-0.3005,-0.3052,-0.3054,0,0,0,0,0,0,-0.3205,-0.3196,-0.3163,-0.316,-0.3164,-0.3128,-0.3121,-0.3116,-0.3076,-0.3069,-0.3082,-0.3077,-0.3035,-0.3031,-0.3028,-0.3058,-0.3006,-0.3005,-0.3005,-0.3051,-0.3053,-0.3055,0,0,0,0,0,0,-0.3206,-0.3203,-0.3165,-0.3176,-0.317,-0.3129,-0.3124,-0.3116,-0.311,-0.307,-0.3062,-0.3083,-0.3033,-0.3029,-0.3034,-0.3055,-0.3005,-0.3004,-0.3049,-0.3051,-0.3054,-0.3118,0,0,0,0,0,0,-0.3208,-0.3204,-0.3213,-0.3177,-0.317,-0.3172,-0.3125,-0.3116,-0.3109,-0.3103,-0.3069,-0.3062,-0.3032,-0.3036,-0.3034,-0.3053,-0.3004,-0.3047,-0.305,-0.3053,-0.3114,-0.3122,-0.3129,0,0,0,0,0,-0.321,-0.3233,-0.3214,-0.3211,-0.3181,-0.3173,-0.3169,-0.3134,-0.3111,-0.312,-0.3095,-0.3063,-0.3054,-0.3037,-0.3034,-0.3054,-0.3045,-0.3049,-0.3053,-0.311,-0.312,-0.3129,0,0,0,0,0,0,-0.3273,-0.3228,-0.3206,-0.3219,-0.32,-0.3162,-0.3173,-0.3146,-0.3134,-0.3128,-0.3085,-0.3078,-0.3089,-0.3072,-0.3054,-0.3079,-0.3045,-0.3048,-0.3089,-0.3099,-0.3107,-0.311,-0.3003,0,0,0,0,0,-0.3288,-0.3286,-0.3246,-0.3261,-0.3253,-0.3215,-0.321,-0.3185,-0.3164,-0.3156,-0.3131,-0.3112,-0.3105,-0.3101,-0.3092,-0.3111,-0.3103,-0.3123,-0.3131,-0.3138,-0.3141,-0.3151,-0.3159,-0.3067,-0.3067,-0.3066,0,0,-0.332,-0.3295,-0.3296,-0.3273,-0.3256,-0.3255,-0.3209,-0.3209,-0.3208,-0.3156,-0.3159,-0.3141,-0.3117,-0.313,-0.3134,-0.3116,-0.3165,-0.3143,-0.3148,-0.3148,-0.3155,-0.3164,-0.3172,-0.3069,-0.3069,-0.3068,0,0,-0.3377,-0.3358,-0.3368,-0.3352,-0.3327,-0.3302,-0.3305,-0.3271,-0.3257,-0.326,-0.3221,-0.3219,-0.3207,-0.3192,-0.3183,-0.3236,-0.3207,-0.3234,-0.3275,-0.3285,-0.3292,-0.3299,-0.3318,-0.3325,-0.3238,-0.3238,-0.3238,0,-0.342,-0.3415,-0.3377,-0.338,-0.3371,-0.3325,-0.3336,-0.3322,-0.3295,-0.3291,-0.3271,-0.3256,-0.3237,-0.3245,-0.3259,-0.3253,-0.3255,-0.3238,-0.3294,-0.33,-0.3306,-0.3323,-0.3331,-0.3242,-0.3241,-0.3241,-0.324,0,-0.3469,-0.3467,-0.3479,-0.3454,-0.3447,-0.3454,-0.3417,-0.3415,-0.339,-0.3367,-0.3372,-0.3347,-0.3333,-0.3333,-0.3309,-0.3339,-0.3329,-0.3302,-0.3267,-0.3319,-0.3335,-0.3341,-0.3247,-0.3245,-0.3244,-0.3243,0,0,-0.3563,-0.3519,-0.3524,-0.3512,-0.3482,-0.3479,-0.3485,-0.3471,-0.347,-0.3453,-0.3457,-0.3449,-0.3424,-0.3414,-0.3388,-0.3397,-0.3441,-0.3369,-0.3368,-0.3384,-0.3473,-0.3493,-0.3501,-0.3422,-0.3423,-0.3424,-0.3475,0,-0.3614,-0.362,-0.3587,-0.3602,-0.36,-0.3556,-0.3561,-0.3543,-0.3522,-0.3518,-0.3495,-0.349,-0.3458,-0.3452,-0.3458,-0.3434,-0.3458,-0.343,-0.3425,-0.3425,-0.3432,-0.3509,-0.353,-0.358,-0.3481,-0.3482,-0.3483,0,-0.3674,-0.3662,-0.3677,-0.3646,-0.3644,-0.3649,-0.3634,-0.363,-0.3609,-0.3593,-0.3583,-0.3553,-0.3557,-0.3524,-0.3528,-0.351,-0.3506,-0.3494,-0.3495,-0.3493,-0.3457,-0.3509,-0.3594,-0.3602,-0.3492,-0.3491,-0.3491,0,-0.3742,-0.3728,-0.3736,-0.3727,-0.3692,-0.3696,-0.3682,-0.366,-0.3654,-0.3641,-0.3637,-0.3625,-0.3618,-0.361,-0.3578,-0.3557,-0.3587,-0.3551,-0.3574,-0.3575,-0.3581,-0.3581,-0.3667,-0.358,-0.358,-0.3579,-0.3579,0,-0.3802,-0.3813,-0.3765,-0.377,-0.3781,-0.3743,-0.3755,-0.3737,-0.3718,-0.3718,-0.368,-0.3681,-0.3639,-0.3636,-0.3611,-0.3619,-0.3617,-0.3604,-0.3597,-0.3607,-0.3609,-0.3604,-0.3599,-0.3581,-0.3581,-0.3581,-0.358,0,-0.3879,-0.3847,-0.3853,-0.3819,-0.3811,-0.3821,-0.3792,-0.3795,-0.3773,-0.3774,-0.3772,-0.3736,-0.3731,-0.3698,-0.3685,-0.3669,-0.3686,-0.3672,-0.3693,-0.3688,-0.3713,-0.3711,-0.3798,-0.3807,-0.3715,-0.3715,-0.3716,0,-0.3919,-0.3926,-0.3894,-0.3892,-0.3879,-0.3876,-0.387,-0.3833,-0.3829,-0.3806,-0.3812,-0.3804,-0.3795,-0.3788,-0.3762,-0.3752,-0.3738,-0.3769,-0.3736,-0.3746,-0.3738,-0.3738,-0.3739,-0.3776,-0.3777,-0.3778,-0.3779,0,-0.3994,-0.3979,-0.3971,-0.3959,-0.3953,-0.3942,-0.3928,-0.3929,-0.3888,-0.3885,-0.3879,-0.3873,-0.386,-0.3852,-0.3838,-0.3823,-0.3795,-0.379,-0.3794,-0.3804,-0.3816,-0.381,-0.3712,-0.3787,-0.3787,-0.3786,-0.3785,-0.3785,-0.4054,-0.4059,-0.4037,-0.403,-0.4017,-0.4005,-0.4006,-0.3984,-0.3979,-0.3965,-0.3944,-0.3942,-0.3922,-0.3899,-0.3888,-0.3885,-0.3868,-0.3875,-0.3877,-0.3879,-0.3885,-0.3817,-0.3882,-0.3882,-0.3882,-0.3882,-0.3881,0,-0.4127,-0.4111,-0.4106,-0.4088,-0.4083,-0.4057,-0.4041,-0.4039,-0.4037,-0.4021,-0.4013,-0.4007,-0.4,-0.3973,-0.3963,-0.3966,-0.3953,-0.3965,-0.3964,-0.3961,-0.39,-0.3897,-0.3976,-0.3976,-0.3976,-0.3976,-0.3976,-0.3976,-0.4164,-0.4171,-0.4154,-0.4154,-0.4138,-0.4135,-0.4128,-0.4117,-0.4104,-0.4099,-0.4093,-0.4076,-0.4055,-0.4044,-0.4036,-0.4028,-0.4026,-0.4043,-0.4031,-0.3974,-0.3965,-0.3957,-0.3953,-0.4043,-0.4043,-0.4092,-0.4093,-0.4093]},{"header":{"parameterUnit":"m.s-1","parameterCategory":1,"la1":30.2991,"la2":30.254,"lo1":-89.0895,"lo2":-89.0444,"dy":0.0017,"dx":0.0017,"nx":28,"ny":28,"refTime":"2026-02-13T09:00:00:Z","depth":0,"parameterNumber":3,"parameterNumberName":"V-component_of_WINDS"},"data":[0,0,0,0,0,0,0,0,0,0,0,0,0,0,0,0,0,0,0,0,0,0,0,0,0,0,0,0,0,0,0,0,0,0,0,0,0,0,0,0,0,0,0,0,0,0,0,0,0,0,0,0,0,0,0,0,0,0,0.3084,0.3084,0,0.3086,0.3086,0.3086,0.3109,0.3109,0.311,0.311,0.3112,0.3112,0.3111,0,0,0,0,0,0,0,0,0,0,0,0,0,0.3101,0.31,0.3084,0.3084,0.3084,0.3086,0.3086,0.3086,0.3108,0.3109,0.311,0.311,0.3112,0.3112,0.3111,0,0,0,0,0,0,0,0,0,0,0,0,0,0.3097,0.31,0.3084,0.3096,0.3097,0.3086,0.3086,0.3086,0.3108,0.3109,0.311,0.3111,0.3112,0.3112,0.3111,0.3089,0,0,0.3109,0.3109,0,0,0,0,0,0,0,0,0.3097,0.3096,0.3094,0.3095,0.3096,0.3098,0.3092,0.3087,0.3108,0.3104,0.311,0.3111,0.3107,0.3107,0.3105,0.3089,0.309,0.3109,0.3108,0.3108,0.3108,0,0,0,0,0,0,0,0.3097,0.3096,0.3085,0.3094,0.3095,0.3101,0.3101,0.3091,0.31,0.3104,0.3106,0.3106,0.3107,0.3106,0.3105,0.309,0.3109,0.3108,0.3108,0.3107,0.3055,0.3054,0,0,0,0,0,0,0.3096,0.3096,0.3085,0.3085,0.3099,0.31,0.31,0.3096,0.3101,0.3102,0.3105,0.3107,0.3106,0.3106,0.3105,0.3079,0.3108,0.3107,0.3107,0.3056,0.3055,0.3054,0,0,0,0,0,0,0.3096,0.3095,0.3085,0.3091,0.309,0.3099,0.3094,0.3096,0.3094,0.3101,0.3103,0.3101,0.3107,0.3106,0.3093,0.308,0.3107,0.3106,0.3057,0.3056,0.3054,0.3027,0,0,0,0,0,0,0.3097,0.3095,0.3087,0.3091,0.309,0.3072,0.3093,0.3095,0.3093,0.3095,0.3098,0.31,0.3108,0.3094,0.3092,0.3079,0.3106,0.3058,0.3057,0.3055,0.3029,0.3025,0.3021,0,0,0,0,0,0.3097,0.3079,0.3086,0.3084,0.308,0.3071,0.3071,0.308,0.3092,0.3083,0.3088,0.31,0.3082,0.3092,0.3091,0.3077,0.3059,0.3057,0.3055,0.3031,0.3026,0.3021,0,0,0,0,0,0,0.3073,0.308,0.3088,0.307,0.307,0.3075,0.3065,0.3075,0.3071,0.3074,0.3086,0.3086,0.3071,0.3073,0.3085,0.3056,0.3072,0.307,0.3055,0.305,0.3046,0.3045,0.3105,0,0,0,0,0,0.3066,0.3059,0.3065,0.3049,0.3049,0.3057,0.3053,0.3061,0.3061,0.3061,0.3065,0.3064,0.3059,0.3055,0.305,0.303,0.3031,0.302,0.3016,0.3013,0.301,0.2999,0.2994,0.3047,0.3047,0.3047,0,0,0.3051,0.3054,0.3048,0.3044,0.3045,0.3037,0.3056,0.3047,0.3041,0.306,0.3047,0.3049,0.305,0.3033,0.3026,0.3034,0.2995,0.301,0.3007,0.3006,0.2996,0.2991,0.2986,0.3045,0.3046,0.3046,0,0,0.3019,0.3021,0.3007,0.3007,0.3008,0.3013,0.301,0.3014,0.3016,0.3003,0.3017,0.301,0.3,0.2999,0.2998,0.2965,0.2975,0.2963,0.2942,0.2931,0.2927,0.2923,0.291,0.2906,0.2961,0.2961,0.2961,0,0.3,0.2988,0.2999,0.2989,0.2986,0.3002,0.2988,0.2988,0.2987,0.2985,0.2995,0.2982,0.2984,0.2966,0.2958,0.2957,0.2953,0.2963,0.2927,0.2923,0.292,0.2908,0.2903,0.2959,0.2959,0.296,0.296,0,0.2965,0.2956,0.2945,0.2943,0.294,0.2928,0.2936,0.2931,0.2939,0.2943,0.293,0.2932,0.2928,0.2924,0.2932,0.2908,0.2913,0.2924,0.2941,0.2913,0.2902,0.2897,0.2957,0.2958,0.2958,0.2958,0,0,0.2918,0.2921,0.2917,0.2916,0.2917,0.2911,0.29,0.2895,0.289,0.2889,0.2879,0.287,0.288,0.2878,0.2886,0.2876,0.2849,0.2889,0.2889,0.2881,0.2821,0.2812,0.2806,0.2856,0.2855,0.2855,0.2821,0,0.2886,0.2866,0.2875,0.2854,0.2846,0.2861,0.2851,0.2851,0.2854,0.2848,0.2852,0.2845,0.286,0.2859,0.285,0.2854,0.2837,0.2857,0.2847,0.2846,0.2845,0.2801,0.2791,0.2758,0.2817,0.2816,0.2815,0,0.2846,0.2842,0.282,0.2823,0.282,0.281,0.2806,0.28,0.28,0.2803,0.2801,0.2811,0.2799,0.2817,0.2801,0.2814,0.281,0.2812,0.2811,0.2809,0.2828,0.2797,0.2749,0.2743,0.2809,0.2809,0.281,0,0.2812,0.2802,0.2787,0.2786,0.2789,0.2782,0.2782,0.2783,0.2779,0.2776,0.2774,0.2769,0.2766,0.2763,0.2771,0.2783,0.2753,0.2772,0.2755,0.2755,0.2747,0.2748,0.2697,0.2747,0.2747,0.2747,0.2747,0,0.2775,0.2761,0.2772,0.2763,0.2747,0.2758,0.2742,0.2744,0.2745,0.2736,0.275,0.2741,0.2753,0.2746,0.2752,0.2737,0.2736,0.2738,0.274,0.2736,0.2736,0.2733,0.2735,0.2746,0.2746,0.2746,0.2747,0,0.2734,0.2742,0.2726,0.273,0.273,0.2718,0.2721,0.2713,0.2718,0.2706,0.2704,0.2712,0.2704,0.2712,0.2705,0.2709,0.2688,0.2694,0.2688,0.2689,0.2672,0.2673,0.2617,0.2609,0.2665,0.2665,0.2664,0,0.271,0.2699,0.2701,0.2696,0.2696,0.2688,0.2684,0.2694,0.2689,0.2688,0.2679,0.2673,0.2667,0.2654,0.2659,0.2653,0.2658,0.2639,0.2657,0.2653,0.2656,0.2656,0.2655,0.2634,0.2634,0.2633,0.2633,0,0.2665,0.2668,0.2662,0.2657,0.2652,0.2648,0.2646,0.2641,0.2651,0.2645,0.2637,0.2633,0.2625,0.2618,0.2614,0.2615,0.2625,0.2627,0.2623,0.2618,0.2615,0.2615,0.2677,0.2628,0.2628,0.2629,0.2629,0.2629,0.263,0.2621,0.2621,0.2613,0.2612,0.2609,0.2601,0.2604,0.2598,0.2592,0.2599,0.2588,0.2588,0.2583,0.2583,0.2575,0.2583,0.2577,0.2575,0.2573,0.257,0.2617,0.2574,0.2574,0.2574,0.2574,0.2575,0,0.2585,0.2585,0.2578,0.2574,0.2567,0.2578,0.2576,0.257,0.256,0.2559,0.2554,0.2544,0.2537,0.2541,0.2535,0.2527,0.2532,0.2525,0.2525,0.2525,0.2564,0.2567,0.2522,0.2522,0.2522,0.2522,0.2522,0.2522,0.256,0.2545,0.2548,0.2532,0.2533,0.2522,0.252,0.2517,0.2516,0.2504,0.2498,0.2501,0.2502,0.2496,0.249,0.2491,0.2488,0.2479,0.2482,0.2517,0.2523,0.2528,0.2531,0.2478,0.2478,0.2444,0.2444,0.2443]}]]